Time,TemperatureF,DewpointF,PressureIn,WindDirection,WindDirectionDegrees,WindSpeedMPH,WindSpeedGustMPH,Humidity,HourlyPrecipIn,Conditions,Clouds,dailyrainin,SoftwareType,DateUTC
2013-07-06 00:02:00,74.3,68.8,30.17,SSE,158,0.0,0.0,83,0.00,,,0.00,WUHU216HW,2013-07-06 04:02:00,
2013-07-06 00:08:00,74.3,68.8,30.17,SSE,158,0.0,0.0,83,0.00,,,0.00,WUHU216HW,2013-07-06 04:08:00,
2013-07-06 00:14:00,74.1,68.6,30.17,SSE,158,0.0,0.0,83,0.00,,,0.00,WUHU216HW,2013-07-06 04:14:00,
2013-07-06 00:19:00,74.1,68.6,30.17,SSE,158,0.0,0.0,83,0.00,,,0.00,WUHU216HW,2013-07-06 04:19:00,
2013-07-06 00:24:00,74.1,68.6,30.16,SSE,158,0.0,0.0,83,0.00,,,0.00,WUHU216HW,2013-07-06 04:24:00,
2013-07-06 00:29:00,73.9,68.4,30.16,SSE,158,0.0,0.0,83,0.00,,,0.00,WUHU216HW,2013-07-06 04:29:00,
2013-07-06 00:34:00,73.9,68.8,30.17,SSE,158,0.0,0.0,84,0.00,,,0.00,WUHU216HW,2013-07-06 04:34:00,
2013-07-06 00:40:00,73.7,68.6,30.16,SSE,158,0.0,0.0,84,0.00,,,0.00,WUHU216HW,2013-07-06 04:40:00,
2013-07-06 00:46:00,73.5,68.4,30.17,SSE,158,0.0,0.0,84,0.00,,,0.00,WUHU216HW,2013-07-06 04:46:00,
2013-07-06 00:51:00,73.4,68.2,30.16,SSE,158,0.0,0.0,84,0.00,,,0.00,WUHU216HW,2013-07-06 04:51:00,
2013-07-06 00:57:00,73.2,68.1,30.16,SSE,158,0.0,0.0,84,0.00,,,0.00,WUHU216HW,2013-07-06 04:57:00,
2013-07-06 01:03:00,73.2,68.1,30.16,SSE,158,0.0,0.0,84,0.00,,,0.00,WUHU216HW,2013-07-06 05:03:00,
2013-07-06 01:08:00,73.2,68.1,30.16,SSE,158,0.0,0.0,84,0.00,,,0.00,WUHU216HW,2013-07-06 05:08:00,
2013-07-06 01:14:00,73.0,67.9,30.17,SSE,158,0.0,0.0,84,0.00,,,0.00,WUHU216HW,2013-07-06 05:14:00,
2013-07-06 01:19:00,73.0,68.2,30.16,SSE,158,0.0,0.0,85,0.00,,,0.00,WUHU216HW,2013-07-06 05:19:00,
2013-07-06 01:25:00,73.0,68.2,30.16,SSE,158,0.0,0.0,85,0.00,,,0.00,WUHU216HW,2013-07-06 05:25:00,
2013-07-06 01:30:00,73.0,68.2,30.17,SSE,158,0.0,0.0,85,0.00,,,0.00,WUHU216HW,2013-07-06 05:30:00,
2013-07-06 01:36:00,73.0,68.2,30.17,SSE,158,0.0,0.0,85,0.00,,,0.00,WUHU216HW,2013-07-06 05:36:00,
2013-07-06 01:41:00,72.8,68.0,30.17,SSE,158,0.0,0.0,85,0.00,,,0.00,WUHU216HW,2013-07-06 05:41:00,
2013-07-06 01:46:00,72.8,68.0,30.17,SSE,158,0.0,0.0,85,0.00,,,0.00,WUHU216HW,2013-07-06 05:46:00,
2013-07-06 01:52:00,72.8,68.4,30.17,SSE,158,0.0,0.0,86,0.00,,,0.00,WUHU216HW,2013-07-06 05:52:00,
2013-07-06 01:57:00,72.6,68.2,30.17,SSE,158,0.0,0.0,86,0.00,,,0.00,WUHU216HW,2013-07-06 05:57:00,
2013-07-06 02:03:00,72.6,68.2,30.17,SSE,158,0.0,0.0,86,0.00,,,0.00,WUHU216HW,2013-07-06 06:03:00,
2013-07-06 02:09:00,72.5,68.0,30.18,SSE,158,0.0,0.0,86,0.00,,,0.00,WUHU216HW,2013-07-06 06:09:00,
2013-07-06 02:14:00,72.3,67.8,30.17,SSE,158,0.0,0.0,86,0.00,,,0.00,WUHU216HW,2013-07-06 06:14:00,
2013-07-06 02:19:00,72.3,67.8,30.17,SSE,158,0.0,0.0,86,0.00,,,0.00,WUHU216HW,2013-07-06 06:19:00,
2013-07-06 02:25:00,72.3,67.8,30.17,SSE,158,0.0,0.0,86,0.00,,,0.00,WUHU216HW,2013-07-06 06:25:00,
2013-07-06 02:35:00,72.1,67.7,30.17,SSE,158,0.0,0.0,86,0.00,,,0.00,WUHU216HW,2013-07-06 06:35:00,
2013-07-06 02:40:00,72.1,67.7,30.17,SSE,158,0.0,0.0,86,0.00,,,0.00,WUHU216HW,2013-07-06 06:40:00,
2013-07-06 02:46:00,71.9,67.5,30.17,SSE,158,0.0,0.0,86,0.00,,,0.00,WUHU216HW,2013-07-06 06:46:00,
2013-07-06 02:52:00,71.7,67.6,30.17,SSE,158,0.0,0.0,87,0.00,,,0.00,WUHU216HW,2013-07-06 06:52:00,
2013-07-06 02:58:00,71.7,67.6,30.17,SSE,158,0.0,0.0,87,0.00,,,0.00,WUHU216HW,2013-07-06 06:58:00,
2013-07-06 03:03:00,71.6,67.5,30.17,SSE,158,0.0,0.0,87,0.00,,,0.00,WUHU216HW,2013-07-06 07:03:00,
2013-07-06 03:08:00,71.4,67.3,30.17,SSE,158,0.0,0.0,87,0.00,,,0.00,WUHU216HW,2013-07-06 07:08:00,
2013-07-06 03:13:00,71.4,67.3,30.18,SSE,158,0.0,0.0,87,0.00,,,0.00,WUHU216HW,2013-07-06 07:13:00,
2013-07-06 03:19:00,71.4,67.3,30.18,SSE,158,0.0,0.0,87,0.00,,,0.00,WUHU216HW,2013-07-06 07:19:00,
2013-07-06 03:25:00,71.2,67.1,30.17,SSE,158,0.0,0.0,87,0.00,,,0.00,WUHU216HW,2013-07-06 07:25:00,
2013-07-06 03:30:00,71.2,67.1,30.17,SSE,158,0.0,0.0,87,0.00,,,0.00,WUHU216HW,2013-07-06 07:30:00,
2013-07-06 03:35:00,71.2,67.1,30.17,SSE,158,0.0,0.0,87,0.00,,,0.00,WUHU216HW,2013-07-06 07:35:00,
2013-07-06 03:40:00,71.2,67.1,30.17,SSE,158,0.0,0.0,87,0.00,,,0.00,WUHU216HW,2013-07-06 07:40:00,
2013-07-06 03:45:00,71.2,67.1,30.17,SSE,158,0.0,0.0,87,0.00,,,0.00,WUHU216HW,2013-07-06 07:45:00,
2013-07-06 03:50:00,71.0,66.9,30.17,SSE,158,0.0,0.0,87,0.00,,,0.00,WUHU216HW,2013-07-06 07:50:00,
2013-07-06 03:56:00,70.8,66.7,30.17,SSE,158,0.0,0.0,87,0.00,,,0.00,WUHU216HW,2013-07-06 07:56:00,
2013-07-06 04:01:00,70.8,66.7,30.17,SSE,158,0.0,0.0,87,0.00,,,0.00,WUHU216HW,2013-07-06 08:01:00,
2013-07-06 04:07:00,70.8,67.1,30.17,SSE,158,0.0,0.0,88,0.00,,,0.00,WUHU216HW,2013-07-06 08:07:00,
2013-07-06 04:13:00,70.8,67.1,30.17,SSE,158,0.0,0.0,88,0.00,,,0.00,WUHU216HW,2013-07-06 08:13:00,
2013-07-06 04:19:00,70.8,67.1,30.17,SSE,158,0.0,0.0,88,0.00,,,0.00,WUHU216HW,2013-07-06 08:19:00,
2013-07-06 04:24:00,70.8,67.1,30.17,SSE,158,0.0,0.0,88,0.00,,,0.00,WUHU216HW,2013-07-06 08:24:00,
2013-07-06 04:30:00,70.8,67.1,30.17,SSE,158,0.0,0.0,88,0.00,,,0.00,WUHU216HW,2013-07-06 08:30:00,
2013-07-06 04:36:00,70.7,66.9,30.17,SSE,158,0.0,0.0,88,0.00,,,0.00,WUHU216HW,2013-07-06 08:36:00,
2013-07-06 04:41:00,70.8,67.1,30.17,SSE,158,0.0,0.0,88,0.00,,,0.00,WUHU216HW,2013-07-06 08:41:00,
2013-07-06 04:47:00,70.8,67.1,30.17,SSE,158,0.0,0.0,88,0.00,,,0.00,WUHU216HW,2013-07-06 08:47:00,
2013-07-06 04:53:00,70.7,66.9,30.17,SSE,158,0.0,0.0,88,0.00,,,0.00,WUHU216HW,2013-07-06 08:53:00,
2013-07-06 04:58:00,70.7,66.9,30.18,SSE,158,0.0,0.0,88,0.00,,,0.00,WUHU216HW,2013-07-06 08:58:00,
2013-07-06 05:04:00,70.5,66.7,30.18,SSE,158,0.0,0.0,88,0.00,,,0.00,WUHU216HW,2013-07-06 09:04:00,
2013-07-06 05:10:00,70.5,66.7,30.17,SSE,158,0.0,0.0,88,0.00,,,0.00,WUHU216HW,2013-07-06 09:10:00,
2013-07-06 05:15:00,70.5,66.7,30.17,SSE,158,0.0,0.0,88,0.00,,,0.00,WUHU216HW,2013-07-06 09:15:00,
2013-07-06 05:20:00,70.5,66.7,30.17,SSE,158,0.0,0.0,88,0.00,,,0.00,WUHU216HW,2013-07-06 09:20:00,
2013-07-06 05:25:00,70.3,66.9,30.17,SSE,158,0.0,0.0,89,0.00,,,0.00,WUHU216HW,2013-07-06 09:25:00,
2013-07-06 05:30:00,70.3,66.9,30.17,SSE,158,0.0,0.0,89,0.00,,,0.00,WUHU216HW,2013-07-06 09:30:00,
2013-07-06 05:36:00,70.3,66.9,30.17,SSE,158,0.0,0.0,89,0.00,,,0.00,WUHU216HW,2013-07-06 09:36:00,
2013-07-06 05:42:00,70.3,66.9,30.16,SSE,158,0.0,0.0,89,0.00,,,0.00,WUHU216HW,2013-07-06 09:42:00,
2013-07-06 05:47:00,70.1,66.7,30.17,SSE,158,0.0,0.0,89,0.00,,,0.00,WUHU216HW,2013-07-06 09:47:00,
2013-07-06 05:52:00,70.1,66.7,30.17,SSE,158,0.0,0.0,89,0.00,,,0.00,WUHU216HW,2013-07-06 09:52:00,
2013-07-06 05:58:00,69.9,66.5,30.17,SSE,158,0.0,0.0,89,0.00,,,0.00,WUHU216HW,2013-07-06 09:58:00,
2013-07-06 06:04:00,69.9,66.5,30.17,SSE,158,0.0,0.0,89,0.00,,,0.00,WUHU216HW,2013-07-06 10:04:00,
2013-07-06 06:09:00,69.9,66.5,30.17,SSE,158,0.0,0.0,89,0.00,,,0.00,WUHU216HW,2013-07-06 10:09:00,
2013-07-06 06:14:00,70.1,66.7,30.17,SSE,158,0.0,0.0,89,0.00,,,0.00,WUHU216HW,2013-07-06 10:14:00,
2013-07-06 06:20:00,69.9,66.5,30.17,SSE,158,0.0,0.0,89,0.00,,,0.00,WUHU216HW,2013-07-06 10:20:00,
2013-07-06 06:26:00,69.9,66.5,30.17,SSE,158,0.0,0.0,89,0.00,,,0.00,WUHU216HW,2013-07-06 10:26:00,
2013-07-06 06:31:00,69.9,66.9,30.17,SSE,158,0.0,0.0,90,0.00,,,0.00,WUHU216HW,2013-07-06 10:31:00,
2013-07-06 06:37:00,70.1,67.1,30.17,SSE,158,0.0,0.0,90,0.00,,,0.00,WUHU216HW,2013-07-06 10:37:00,
2013-07-06 06:42:00,70.3,67.2,30.17,SSE,158,0.0,0.0,90,0.00,,,0.00,WUHU216HW,2013-07-06 10:42:00,
2013-07-06 06:47:00,70.3,67.2,30.18,SSE,158,0.0,0.0,90,0.00,,,0.00,WUHU216HW,2013-07-06 10:47:00,
2013-07-06 06:53:00,70.5,67.4,30.17,SSE,158,0.0,0.0,90,0.00,,,0.00,WUHU216HW,2013-07-06 10:53:00,
2013-07-06 06:58:00,70.5,67.4,30.18,SSE,158,0.0,0.0,90,0.00,,,0.00,WUHU216HW,2013-07-06 10:58:00,
2013-07-06 07:03:00,70.7,67.6,30.18,SSE,158,0.0,0.0,90,0.00,,,0.00,WUHU216HW,2013-07-06 11:03:00,
2013-07-06 07:09:00,71.2,68.1,30.18,SSE,158,0.0,0.0,90,0.00,,,0.00,WUHU216HW,2013-07-06 11:09:00,
2013-07-06 07:14:00,71.7,69.0,30.18,SSE,158,0.0,0.0,91,0.00,,,0.00,WUHU216HW,2013-07-06 11:14:00,
2013-07-06 07:19:00,72.8,70.4,30.18,SSE,158,0.0,0.0,91,0.00,,,0.00,WUHU216HW,2013-07-06 11:19:00,
2013-07-06 07:24:00,73.2,70.4,30.18,SSE,158,0.0,0.0,91,0.00,,,0.00,WUHU216HW,2013-07-06 11:24:00,
2013-07-06 07:29:00,73.7,71.0,30.18,SSE,158,0.0,0.0,91,0.00,,,0.00,WUHU216HW,2013-07-06 11:29:00,
2013-07-06 07:35:00,73.9,71.1,30.18,SSE,158,0.0,0.0,91,0.00,,,0.00,WUHU216HW,2013-07-06 11:35:00,
2013-07-06 07:40:00,74.3,71.0,30.18,NE,45,0.0,0.0,90,0.00,,,0.00,WUHU216HW,2013-07-06 11:40:00,
2013-07-06 07:45:00,74.3,71.2,30.18,NE,45,0.0,0.0,90,0.00,,,0.00,WUHU216HW,2013-07-06 11:45:00,
2013-07-06 07:50:00,74.4,71.4,30.18,NE,45,0.0,0.0,90,0.00,,,0.00,WUHU216HW,2013-07-06 11:50:00,
2013-07-06 07:55:00,74.8,71.7,30.18,NE,45,0.0,0.0,90,0.00,,,0.00,WUHU216HW,2013-07-06 11:55:00,
2013-07-06 08:00:00,75.0,71.9,30.18,NE,45,0.0,0.0,90,0.00,,,0.00,WUHU216HW,2013-07-06 12:00:00,
2013-07-06 08:06:00,75.0,71.6,30.19,NE,45,0.0,0.0,89,0.00,,,0.00,WUHU216HW,2013-07-06 12:06:00,
2013-07-06 08:11:00,75.3,71.9,30.19,NE,45,0.0,0.0,89,0.00,,,0.00,WUHU216HW,2013-07-06 12:11:00,
2013-07-06 08:17:00,75.7,72.3,30.19,NE,45,0.0,0.0,89,0.00,,,0.00,WUHU216HW,2013-07-06 12:17:00,
2013-07-06 08:23:00,76.1,72.6,30.19,NE,45,0.0,0.0,89,0.00,,,0.00,WUHU216HW,2013-07-06 12:23:00,
2013-07-06 08:34:00,76.1,72.3,30.19,NE,45,0.0,0.0,88,0.00,,,0.00,WUHU216HW,2013-07-06 12:34:00,
2013-07-06 08:39:00,76.2,72.5,30.19,NE,45,0.0,0.0,88,0.00,,,0.00,WUHU216HW,2013-07-06 12:39:00,
2013-07-06 08:45:00,76.6,72.8,30.19,NE,45,0.0,0.0,88,0.00,,,0.00,WUHU216HW,2013-07-06 12:45:00,
2013-07-06 08:51:00,77.0,73.2,30.19,NE,45,0.0,0.0,88,0.00,,,0.00,WUHU216HW,2013-07-06 12:51:00,
2013-07-06 08:57:00,77.5,73.4,30.19,NE,45,0.0,0.0,87,0.00,,,0.00,WUHU216HW,2013-07-06 12:57:00,
2013-07-06 09:02:00,77.7,73.5,30.18,NE,45,0.0,0.0,87,0.00,,,0.00,WUHU216HW,2013-07-06 13:02:00,
2013-07-06 09:07:00,78.0,73.9,30.19,NE,45,0.0,0.0,87,0.00,,,0.00,WUHU216HW,2013-07-06 13:07:00,
2013-07-06 09:13:00,78.6,74.1,30.19,SW,225,0.0,0.0,86,0.00,,,0.00,WUHU216HW,2013-07-06 13:13:00,
2013-07-06 09:18:00,78.6,74.1,30.19,SW,225,0.0,0.0,86,0.00,,,0.00,WUHU216HW,2013-07-06 13:18:00,
2013-07-06 09:24:00,78.9,74.1,30.19,SW,225,0.0,0.0,85,0.00,,,0.00,WUHU216HW,2013-07-06 13:24:00,
2013-07-06 09:30:00,79.5,74.6,30.18,SW,225,0.0,0.0,85,0.00,,,0.00,WUHU216HW,2013-07-06 13:30:00,
2013-07-06 09:36:00,79.7,74.4,30.18,SW,225,0.0,0.0,84,0.00,,,0.00,WUHU216HW,2013-07-06 13:36:00,
2013-07-06 09:41:00,79.7,74.0,30.18,SSW,203,0.0,0.0,83,0.00,,,0.00,WUHU216HW,2013-07-06 13:41:00,
2013-07-06 09:46:00,79.7,74.0,30.18,SSW,203,0.0,0.0,83,0.00,,,0.00,WUHU216HW,2013-07-06 13:46:00,
2013-07-06 09:51:00,79.8,73.9,30.18,West,270,0.0,0.0,82,0.00,,,0.00,WUHU216HW,2013-07-06 13:51:00,
2013-07-06 09:57:00,80.2,74.6,30.18,West,270,0.0,0.0,83,0.00,,,0.00,WUHU216HW,2013-07-06 13:57:00,
2013-07-06 10:02:00,80.7,74.8,30.18,West,270,0.0,0.0,82,0.00,,,0.00,WUHU216HW,2013-07-06 14:02:00,
2013-07-06 10:07:00,81.3,75.3,30.18,West,270,0.0,0.0,82,0.00,,,0.00,WUHU216HW,2013-07-06 14:07:00,
2013-07-06 10:12:00,82.2,75.9,30.18,NW,315,0.0,0.0,81,0.00,,,0.00,WUHU216HW,2013-07-06 14:12:00,
2013-07-06 10:18:00,82.7,76.0,30.18,NW,315,0.0,0.0,80,0.00,,,0.00,WUHU216HW,2013-07-06 14:18:00,
2013-07-06 10:24:00,83.1,75.5,30.18,WNW,293,0.0,0.0,78,0.00,,,0.00,WUHU216HW,2013-07-06 14:24:00,
2013-07-06 10:30:00,83.1,74.7,30.18,WSW,248,0.0,0.0,76,0.00,,,0.00,WUHU216HW,2013-07-06 14:30:00,
2013-07-06 10:36:00,83.1,74.7,30.18,West,270,0.0,0.0,76,0.00,,,0.00,WUHU216HW,2013-07-06 14:36:00,
2013-07-06 10:42:00,83.4,75.0,30.18,WNW,293,0.0,0.0,76,0.00,,,0.00,WUHU216HW,2013-07-06 14:42:00,
2013-07-06 10:48:00,83.8,75.0,30.18,WNW,293,0.0,0.0,75,0.00,,,0.00,WUHU216HW,2013-07-06 14:48:00,
2013-07-06 10:54:00,84.2,74.9,30.18,NW,315,0.0,0.0,74,0.00,,,0.00,WUHU216HW,2013-07-06 14:54:00,
2013-07-06 10:59:00,84.7,75.5,30.18,SSW,203,0.0,0.0,74,0.00,,,0.00,WUHU216HW,2013-07-06 14:59:00,
2013-07-06 11:05:00,85.1,75.4,30.18,West,270,0.0,0.0,73,0.00,,,0.00,WUHU216HW,2013-07-06 15:05:00,
2013-07-06 11:11:00,85.2,75.6,30.18,West,270,0.0,0.0,73,0.00,,,0.00,WUHU216HW,2013-07-06 15:11:00,
2013-07-06 11:16:00,85.8,76.2,30.18,NW,315,0.0,0.0,73,0.00,,,0.00,WUHU216HW,2013-07-06 15:16:00,
2013-07-06 11:22:00,86.5,76.4,30.17,West,270,0.0,0.0,72,0.00,,,0.00,WUHU216HW,2013-07-06 15:22:00,
2013-07-06 11:28:00,87.0,76.5,30.17,NW,315,0.0,0.0,71,0.00,,,0.00,WUHU216HW,2013-07-06 15:28:00,
2013-07-06 11:33:00,87.4,76.8,30.17,NW,315,0.0,0.0,71,0.00,,,0.00,WUHU216HW,2013-07-06 15:33:00,
2013-07-06 11:39:00,87.9,76.5,30.17,West,270,0.0,0.0,69,0.00,,,0.00,WUHU216HW,2013-07-06 15:39:00,
2013-07-06 11:45:00,88.3,76.4,30.17,WNW,293,0.0,0.0,68,0.00,,,0.00,WUHU216HW,2013-07-06 15:45:00,
2013-07-06 11:50:00,88.7,76.8,30.17,WNW,293,0.0,0.0,68,0.00,,,0.00,WUHU216HW,2013-07-06 15:50:00,
2013-07-06 11:55:00,89.2,76.8,30.17,WNW,293,0.0,0.0,67,0.00,,,0.00,WUHU216HW,2013-07-06 15:55:00,
2013-07-06 12:00:00,89.7,76.9,30.17,NW,315,0.0,0.0,66,0.00,,,0.00,WUHU216HW,2013-07-06 16:00:00,
2013-07-06 12:05:00,89.9,76.6,30.17,NW,315,0.0,0.0,65,0.00,,,0.00,WUHU216HW,2013-07-06 16:05:00,
2013-07-06 12:11:00,90.5,77.0,30.16,WNW,293,0.0,0.0,65,0.00,,,0.00,WUHU216HW,2013-07-06 16:11:00,
2013-07-06 12:17:00,90.6,76.7,30.16,NW,315,0.0,0.0,64,0.00,,,0.00,WUHU216HW,2013-07-06 16:17:00,
2013-07-06 12:23:00,91.0,77.1,30.16,SSE,158,0.0,0.0,64,0.00,,,0.00,WUHU216HW,2013-07-06 16:23:00,
2013-07-06 12:28:00,90.5,76.1,30.16,SSE,158,0.0,0.0,63,0.00,,,0.00,WUHU216HW,2013-07-06 16:28:00,
2013-07-06 12:34:00,90.1,76.2,30.16,SSE,158,0.0,0.0,64,0.00,,,0.00,WUHU216HW,2013-07-06 16:34:00,
2013-07-06 12:39:00,90.1,76.2,30.15,SSE,158,0.0,0.0,64,0.00,,,0.00,WUHU216HW,2013-07-06 16:39:00,
2013-07-06 12:50:00,90.6,76.3,30.15,SSW,203,0.0,0.0,63,0.00,,,0.00,WUHU216HW,2013-07-06 16:50:00,
2013-07-06 12:56:00,91.2,76.3,30.15,SSW,203,0.0,0.0,62,0.00,,,0.00,WUHU216HW,2013-07-06 16:56:00,
2013-07-06 13:07:00,91.9,76.5,30.14,SSW,203,0.0,0.0,61,0.00,,,0.00,WUHU216HW,2013-07-06 17:07:00,
2013-07-06 13:12:00,91.7,75.9,30.14,SSW,203,0.0,0.0,60,0.00,,,0.00,WUHU216HW,2013-07-06 17:12:00,
2013-07-06 13:17:00,92.1,76.7,30.14,SSW,203,0.0,0.0,61,0.00,,,0.00,WUHU216HW,2013-07-06 17:17:00,
2013-07-06 13:28:00,91.9,76.5,30.13,SSW,203,0.0,0.0,61,0.00,,,0.00,WUHU216HW,2013-07-06 17:28:00,
2013-07-06 13:34:00,92.4,76.6,30.13,ENE,68,0.0,0.0,60,0.00,,,0.00,WUHU216HW,2013-07-06 17:34:00,
2013-07-06 13:45:00,93.3,76.9,30.13,North,0,0.0,0.0,59,0.00,,,0.00,WUHU216HW,2013-07-06 17:45:00,
2013-07-06 13:50:00,93.7,77.2,30.13,North,0,0.0,0.0,59,0.00,,,0.00,WUHU216HW,2013-07-06 17:50:00,
2013-07-06 13:55:00,94.6,78.0,30.13,North,0,0.0,0.0,59,0.00,,,0.00,WUHU216HW,2013-07-06 17:55:00,
2013-07-06 14:01:00,95.0,78.0,30.12,North,0,0.0,0.0,58,0.00,,,0.00,WUHU216HW,2013-07-06 18:01:00,
2013-07-06 14:06:00,94.8,78.2,30.12,North,0,0.0,0.0,59,0.00,,,0.00,WUHU216HW,2013-07-06 18:06:00,
2013-07-06 14:16:00,95.5,77.8,30.12,WSW,248,0.0,0.0,57,0.00,,,0.00,WUHU216HW,2013-07-06 18:16:00,
2013-07-06 14:21:00,95.7,77.4,30.11,WSW,248,0.0,0.0,56,0.00,,,0.00,WUHU216HW,2013-07-06 18:21:00,
2013-07-06 14:31:00,96.0,77.2,30.11,WSW,248,0.0,0.0,55,0.00,,,0.00,WUHU216HW,2013-07-06 18:31:00,
2013-07-06 14:36:00,96.4,78.1,30.11,WSW,248,0.0,0.0,56,0.00,,,0.00,WUHU216HW,2013-07-06 18:36:00,
2013-07-06 14:42:00,96.9,77.5,30.11,WSW,248,0.0,0.0,54,0.00,,,0.00,WUHU216HW,2013-07-06 18:42:00,
2013-07-06 14:53:00,97.3,77.3,30.11,WSW,248,0.0,0.0,53,0.00,,,0.00,WUHU216HW,2013-07-06 18:53:00,
2013-07-06 14:58:00,97.3,77.8,30.11,NW,315,0.0,0.0,54,0.00,,,0.00,WUHU216HW,2013-07-06 18:58:00,
2013-07-06 15:04:00,97.3,77.8,30.10,WSW,248,0.0,0.0,54,0.00,,,0.00,WUHU216HW,2013-07-06 19:04:00,
2013-07-06 15:15:00,97.8,78.3,30.10,WSW,248,0.0,0.0,54,0.00,,,0.00,WUHU216HW,2013-07-06 19:15:00,
2013-07-06 15:21:00,98.2,78.1,30.10,WSW,248,0.0,0.0,53,0.00,,,0.00,WUHU216HW,2013-07-06 19:21:00,
2013-07-06 15:32:00,98.4,77.7,30.09,WSW,248,0.0,0.0,52,0.00,,,0.00,WUHU216HW,2013-07-06 19:32:00,
2013-07-06 15:43:00,98.2,77.0,30.09,WSW,248,0.0,0.0,51,0.00,,,0.00,WUHU216HW,2013-07-06 19:43:00,
2013-07-06 15:54:00,98.4,78.8,30.09,WSW,248,0.0,0.0,54,0.00,,,0.00,WUHU216HW,2013-07-06 19:54:00,
2013-07-06 16:05:00,98.2,77.0,30.08,WSW,248,0.0,0.0,51,0.00,,,0.00,WUHU216HW,2013-07-06 20:05:00,
2013-07-06 16:16:00,98.0,77.9,30.08,NNW,338,0.0,0.0,53,0.00,,,0.00,WUHU216HW,2013-07-06 20:16:00,
2013-07-06 16:21:00,97.8,77.8,30.08,WSW,248,0.0,0.0,53,0.00,,,0.00,WUHU216HW,2013-07-06 20:21:00,
2013-07-06 16:27:00,97.8,77.8,30.08,WSW,248,0.0,0.0,53,0.00,,,0.00,WUHU216HW,2013-07-06 20:27:00,
2013-07-06 16:38:00,98.4,77.7,30.07,WSW,248,0.0,0.0,52,0.00,,,0.00,WUHU216HW,2013-07-06 20:38:00,
2013-07-06 16:43:00,98.4,77.7,30.07,WSW,248,0.0,0.0,52,0.00,,,0.00,WUHU216HW,2013-07-06 20:43:00,
2013-07-06 16:54:00,98.7,77.5,30.06,WSW,248,0.0,0.0,51,0.00,,,0.00,WUHU216HW,2013-07-06 20:54:00,
2013-07-06 17:00:00,98.4,77.1,30.06,WSW,248,0.0,0.0,51,0.00,,,0.00,WUHU216HW,2013-07-06 21:00:00,
2013-07-06 17:05:00,98.6,78.0,30.06,WSW,248,0.0,0.0,52,0.00,,,0.00,WUHU216HW,2013-07-06 21:05:00,
2013-07-06 17:11:00,98.9,77.7,30.06,WSW,248,0.0,0.0,51,0.00,,,0.00,WUHU216HW,2013-07-06 21:11:00,
2013-07-06 17:16:00,98.7,76.9,30.06,WSW,248,0.0,0.0,50,0.00,,,0.00,WUHU216HW,2013-07-06 21:16:00,
2013-07-06 17:26:00,98.7,76.9,30.05,WSW,248,0.0,0.0,50,0.00,,,0.00,WUHU216HW,2013-07-06 21:26:00,
2013-07-06 17:32:00,98.6,77.9,30.05,WSW,248,0.0,0.0,52,0.00,,,0.00,WUHU216HW,2013-07-06 21:32:00,
2013-07-06 17:37:00,98.9,78.2,30.05,WSW,248,0.0,0.0,52,0.00,,,0.00,WUHU216HW,2013-07-06 21:37:00,
2013-07-06 17:48:00,98.9,77.7,30.05,WSW,248,0.0,0.0,51,0.00,,,0.00,WUHU216HW,2013-07-06 21:48:00,
2013-07-06 17:53:00,98.9,77.7,30.05,WSW,248,0.0,0.0,51,0.00,,,0.00,WUHU216HW,2013-07-06 21:53:00,
2013-07-06 17:59:00,98.7,78.0,30.05,WSW,248,0.0,0.0,52,0.00,,,0.00,WUHU216HW,2013-07-06 21:59:00,
2013-07-06 18:04:00,98.6,77.9,30.04,WSW,248,0.0,0.0,52,0.00,,,0.00,WUHU216HW,2013-07-06 22:04:00,
2013-07-06 18:16:00,97.7,77.1,30.05,WSW,248,0.0,0.0,52,0.00,,,0.00,WUHU216HW,2013-07-06 22:16:00,
2013-07-06 18:27:00,96.9,76.9,30.04,WSW,248,0.0,0.0,53,0.00,,,0.00,WUHU216HW,2013-07-06 22:27:00,
2013-07-06 18:38:00,96.4,77.5,30.04,WSW,248,0.0,0.0,55,0.00,,,0.00,WUHU216HW,2013-07-06 22:38:00,
2013-07-06 18:49:00,95.9,77.6,30.04,WNW,293,0.0,0.0,56,0.00,,,0.00,WUHU216HW,2013-07-06 22:49:00,
2013-07-06 18:54:00,95.7,78.0,30.04,WNW,293,0.0,0.0,57,0.00,,,0.00,WUHU216HW,2013-07-06 22:54:00,
2013-07-06 19:05:00,94.2,76.1,30.04,WNW,293,0.0,0.0,56,0.00,,,0.00,WUHU216HW,2013-07-06 23:05:00,
2013-07-06 19:11:00,93.9,76.3,30.04,WSW,248,0.0,0.0,57,0.00,,,0.00,WUHU216HW,2013-07-06 23:11:00,
2013-07-06 19:16:00,93.3,76.4,30.04,WSW,248,0.0,0.0,58,0.00,,,0.00,WUHU216HW,2013-07-06 23:16:00,
2013-07-06 19:26:00,92.4,76.0,30.05,West,270,0.0,0.0,59,0.00,,,0.00,WUHU216HW,2013-07-06 23:26:00,
2013-07-06 19:31:00,91.9,75.5,30.05,West,270,0.0,0.0,59,0.00,,,0.00,WUHU216HW,2013-07-06 23:31:00,
2013-07-06 19:36:00,91.2,75.3,30.05,West,270,0.0,0.0,60,0.00,,,0.00,WUHU216HW,2013-07-06 23:36:00,
2013-07-06 19:42:00,90.3,75.0,30.05,West,270,0.0,0.0,61,0.00,,,0.00,WUHU216HW,2013-07-06 23:42:00,
2013-07-06 19:48:00,89.4,74.6,30.05,West,270,0.0,0.0,62,0.00,,,0.00,WUHU216HW,2013-07-06 23:48:00,
2013-07-06 19:54:00,88.8,74.2,30.04,West,270,0.0,0.0,62,0.00,,,0.00,WUHU216HW,2013-07-06 23:54:00,
2013-07-06 19:59:00,88.1,73.9,30.05,West,270,0.0,0.0,63,0.00,,,0.00,WUHU216HW,2013-07-06 23:59:00,
2013-07-06 20:14:00,86.7,73.5,30.04,West,270,0.0,0.0,65,0.00,,,0.00,WUHU216HW,2013-07-07 00:14:00,
2013-07-06 20:20:00,86.1,73.4,30.04,West,270,0.0,0.0,66,0.00,,,0.00,WUHU216HW,2013-07-07 00:20:00,
2013-07-06 20:25:00,85.8,73.6,30.04,West,270,0.0,0.0,67,0.00,,,0.00,WUHU216HW,2013-07-07 00:25:00,
2013-07-06 20:36:00,85.1,72.9,30.05,West,270,0.0,0.0,67,0.00,,,0.00,WUHU216HW,2013-07-07 00:36:00,
2013-07-06 20:42:00,84.7,73.0,30.05,West,270,0.0,0.0,68,0.00,,,0.00,WUHU216HW,2013-07-07 00:42:00,
2013-07-06 20:48:00,84.3,72.6,30.05,West,270,0.0,0.0,68,0.00,,,0.00,WUHU216HW,2013-07-07 00:48:00,
2013-07-06 20:59:00,83.4,72.6,30.05,West,270,0.0,0.0,70,0.00,,,0.00,WUHU216HW,2013-07-07 00:59:00,
2013-07-06 21:04:00,83.1,72.3,30.06,West,270,0.0,0.0,70,0.00,,,0.00,WUHU216HW,2013-07-07 01:04:00,
2013-07-06 21:10:00,82.9,72.5,30.06,West,270,0.0,0.0,71,0.00,,,0.00,WUHU216HW,2013-07-07 01:10:00,
2013-07-06 21:15:00,82.5,72.1,30.06,West,270,0.0,0.0,71,0.00,,,0.00,WUHU216HW,2013-07-07 01:15:00,
2013-07-06 21:20:00,82.2,71.8,30.06,West,270,0.0,0.0,71,0.00,,,0.00,WUHU216HW,2013-07-07 01:20:00,
2013-07-06 21:26:00,82.0,71.6,30.06,West,270,0.0,0.0,71,0.00,,,0.00,WUHU216HW,2013-07-07 01:26:00,
2013-07-06 21:31:00,81.8,71.9,30.06,West,270,0.0,0.0,72,0.00,,,0.00,WUHU216HW,2013-07-07 01:31:00,
2013-07-06 21:36:00,81.6,71.7,30.07,West,270,0.0,0.0,72,0.00,,,0.00,WUHU216HW,2013-07-07 01:36:00,
2013-07-06 21:42:00,81.3,71.8,30.07,West,270,0.0,0.0,73,0.00,,,0.00,WUHU216HW,2013-07-07 01:42:00,
2013-07-06 21:52:00,80.9,71.6,30.07,West,270,0.0,0.0,73,0.00,,,0.00,WUHU216HW,2013-07-07 01:52:00,
2013-07-06 21:58:00,80.7,71.3,30.08,West,270,0.0,0.0,73,0.00,,,0.00,WUHU216HW,2013-07-07 01:58:00,
2013-07-06 22:04:00,80.4,70.9,30.07,West,270,0.0,0.0,73,0.00,,,0.00,WUHU216HW,2013-07-07 02:04:00,
2013-07-06 22:09:00,80.4,71.3,30.08,West,270,0.0,0.0,74,0.00,,,0.00,WUHU216HW,2013-07-07 02:09:00,
2013-07-06 22:14:00,80.0,71.0,30.08,West,270,0.0,0.0,74,0.00,,,0.00,WUHU216HW,2013-07-07 02:14:00,
2013-07-06 22:20:00,79.7,71.0,30.08,West,270,0.0,0.0,75,0.00,,,0.00,WUHU216HW,2013-07-07 02:20:00,
2013-07-06 22:30:00,79.3,70.7,30.09,West,270,0.0,0.0,75,0.00,,,0.00,WUHU216HW,2013-07-07 02:30:00,
2013-07-06 22:35:00,79.1,70.5,30.09,West,270,0.0,0.0,75,0.00,,,0.00,WUHU216HW,2013-07-07 02:35:00,
2013-07-06 22:41:00,78.9,70.7,30.09,West,270,0.0,0.0,76,0.00,,,0.00,WUHU216HW,2013-07-07 02:41:00,
2013-07-06 22:46:00,78.6,70.3,30.09,West,270,0.0,0.0,76,0.00,,,0.00,WUHU216HW,2013-07-07 02:46:00,
2013-07-06 22:51:00,78.6,70.3,30.09,West,270,0.0,0.0,76,0.00,,,0.00,WUHU216HW,2013-07-07 02:51:00,
2013-07-06 22:57:00,78.6,70.7,30.08,West,270,0.0,0.0,77,0.00,,,0.00,WUHU216HW,2013-07-07 02:57:00,
2013-07-06 23:02:00,78.6,70.7,30.09,West,270,0.0,0.0,77,0.00,,,0.00,WUHU216HW,2013-07-07 03:02:00,
2013-07-06 23:08:00,78.6,71.1,30.09,West,270,0.0,0.0,78,0.00,,,0.00,WUHU216HW,2013-07-07 03:08:00,
2013-07-06 23:13:00,78.4,70.9,30.09,West,270,0.0,0.0,78,0.00,,,0.00,WUHU216HW,2013-07-07 03:13:00,
2013-07-06 23:19:00,78.2,70.8,30.09,West,270,0.0,0.0,78,0.00,,,0.00,WUHU216HW,2013-07-07 03:19:00,
2013-07-06 23:24:00,78.0,70.6,30.09,West,270,0.0,0.0,78,0.00,,,0.00,WUHU216HW,2013-07-07 03:24:00,
2013-07-06 23:29:00,78.0,70.6,30.10,West,270,0.0,0.0,78,0.00,,,0.00,WUHU216HW,2013-07-07 03:29:00,
2013-07-06 23:40:00,77.7,70.6,30.10,West,270,0.0,0.0,79,0.00,,,0.00,WUHU216HW,2013-07-07 03:40:00,
2013-07-06 23:45:00,77.5,70.4,30.10,West,270,0.0,0.0,79,0.00,,,0.00,WUHU216HW,2013-07-07 03:45:00,
2013-07-06 23:51:00,77.1,70.1,30.11,West,270,0.0,0.0,79,0.00,,,0.00,WUHU216HW,2013-07-07 03:51:00,
2013-07-06 23:56:00,77.1,70.5,30.11,West,270,0.0,0.0,80,0.00,,,0.00,WUHU216HW,2013-07-07 03:56:00,